星链-31529 (STARLINK-31529 )

导读

STARLINK-31529是美国太空探索技术公司SpaceX星链互联网卫星星座中的一员,于2024年2月23日发射入轨,属于星链星座扩容任务的一部分。星链卫星旨在为全球提供高速低延迟互联网覆盖,此颗卫星延续了星链星座标准化设计与批量部署的特点,服务全球偏远与通信欠发达区域网络接入需求。

基本信息
目录编号:
59000
目录名称:
STARLINK-31529
国际标识:
2024-036C
轨道中心:
EARTH
卫星名称:
星链-31529
卫星全名:
星链-31529 (STARLINK-31529 )
卫星状态:
在轨 (已飞行924 天)
发射日期:
2024-02-23 UTC
国别 :
美国 (US)
星等 :
--
轨道信息
数据来源 国际轨道数据 AOE轨道数据
星历时间 2026-09-04T13:08:04+0800
4小时前
查看轨道信息
2026-09-03T18:00:00+0800
23小时前
查看轨道信息
半长轴 6840.879km 6840.856km
偏心率 0.0001086 0.0001185
轨道倾角 53.161° 53.161°
近地点辐角 90.289° 85.359°
升交点赤经 325.542° 329.271°
平近点角 269.824° 188.351°
近地点 461.999km 461.908km
远地点 463.485km 463.53km
周期 93.849分钟 93.848分钟
每日圈数 15.34387 15.343949
详细信息
固有亮度:
5
最大亮度:
0.3
卫星平台:
Starlink v2.0 mini
覆盖范围:
全球
运营商:
太空探索技术公司
运营商所在国:
美国
制造商(研发单位):
太空探索技术公司
制造商所在国:
美国
使用方式:
暂无
卫星简介
星链(Starlink)计划是由太空探索技术公司(SpaceX)提出的一个巨型低轨卫星互联网星座项目,计划在2019年至2024年间在太空搭建由约1.2万颗卫星组成的“星链”网络,其中1584颗将部署在地球上空550千米处的近地轨道,并从2020年开始工作。该卫星仍在工作。
2D轨道图
3D轨道图
轨道高度分析图
轨道倾角分析图
轨道综合分析图
查看轨道综合分析图
交会数据列表
事件ID 空间交会对象 最接近时刻(TCA) 交会距离 交会风险概率(CRP) 交会风险指数(CRI) 操作
CDM_260905-081205-900006-521021
2026-09-05T
08:12:22+0000
1.123 km
极远距离
1.11398E-5 中风险 0.56
CDM_260905-074205-900006-303921
2026-09-05T
07:42:42+0000
1.481 km
极远距离
6.14586E-6 低风险 0.51
CDM_260904-220205-900006-521021
2026-09-04T
22:02:43+0000
1.367 km
极远距离
5.685109E-6 低风险 0.5
CDM_260905-081704-846805-900021
2026-09-05T
08:17:14+0000
1.509 km
极远距离
5.150009E-6 低风险 0.49
CDM_260905-060805-900006-303921
2026-09-05T
06:08:54+0000
2.084 km
极远距离
2.291685E-6 低风险 0.42
CDM_260904-233605-900006-521021
2026-09-04T
23:36:31+0000
1.921 km
极远距离
2.049331E-6 低风险 0.41
CDM_260905-094605-900006-521021
2026-09-05T
09:46:09+0000
1.970 km
极远距离
1.92547E-6 低风险 0.41
CDM_260905-165304-846805-900021
2026-09-05T
16:53:09+0000
2.614 km
极远距离
1.315159E-6 低风险 0.37
CDM_260905-091605-900006-303921
2026-09-05T
09:16:29+0000
2.804 km
极远距离
1.309257E-6 低风险 0.37
CDM_260905-151904-846805-900021
2026-09-05T
15:19:20+0000
2.725 km
极远距离
1.234829E-6 低风险 0.37